Content
SEND FEEDBACK

Daily
Averages
Monthly
Summary
United States of America

NEW YORK - CENTRAL PARK, NEW YORK


Home > North America > United States > New York
Elevation: 14 feet     Latitude: 40 47N     Longitude: 073 58W

WEATHER
 
SELECT A DAY
Number of Records: 148,218;   Date Range: 11/1/95 - 8/30/14
 
SHARE

PRINT THIS DATA

[ ← Previous Day ]
WEATHER ALMANAC - JANUARY 19, 2013
[ Next Day → ]
[ °C ]   °F
Weather ElementAverageHighLow
Temperature41.1 °F51.1 °F (3:51 pm)30 °F (1:51 am)
Dewpoint22.2 °F27 °F (11:51 pm)10.9 °F (1:51 am)
Humidity48 %64 % (6:51 am)33 % (3:51 pm)
Barometer30.16 in30.39 in (1:51 am)29.92 in (11:51 pm)
Wind Speed10.2 mph15 mph (3:51 am)
Wind Gust28.8 mph (8:51 pm)
Weather ElementAverage
Visibility10 mi
Wind DirectionS (184.3 °)

Weather ElementTotal
Precipitation---
Heating Degree Days24.5 (Base 65)
Averaged from 23 records on January 19, 2013
WEATHER CONDITIONS BREAKOUT
WIND DIRECTION BREAKOUT
WEATHER BY HOUR - JANUARY 19, 2013
[ °C ]   °F
Local TimeTemperatureDewpointHumidityBarometerVisibilityWind DirectionWind SpeedGust SpeedPrecipitationEventsConditions
1:51 AM30.0 °F10.9 °F45 %30.39 in10.0 miWSW (240°)12.7 mph18.4 mphClear
2:51 AM30.9 °F12.0 °F46 %30.36 in10.0 miWSW (240°)9.2 mphClear
3:51 AM32.0 °F12.0 °F44 %30.32 in10.0 miSW (230°)15.0 mph27.6 mphClear
4:51 AM32.0 °F17.1 °F54 %30.32 in10.0 miWSW (240°)13.8 mph25.3 mphClear
5:51 AM32.0 °F19.0 °F59 %30.30 in10.0 miSW (220°)8.1 mph27.6 mphOvercast
6:51 AM32.0 °F21.0 °F64 %30.29 in10.0 miWSW (240°)15.0 mph24.2 mphClear
7:51 AM33.1 °F21.9 °F64 %30.28 in10.0 miSW (220°)9.2 mph20.7 mphScattered Clouds
8:51 AM34.0 °F23.0 °F64 %30.28 in10.0 miSW (230°)9.2 mph24.2 mphClear
9:51 AM37.0 °F24.1 °F59 %30.27 in10.0 miWSW (250°)11.5 mph24.2 mphClear
10:51 AM39.9 °F25.0 °F55 %30.23 in10.0 miWSW (250°)9.2 mph20.7 mphClear
11:51 AM44.1 °F25.0 °F47 %30.17 in10.0 miVariable5.8 mph18.4 mphClear
12:51 PM46.9 °F25.0 °F42 %30.13 in10.0 miNorthClear
1:51 PM48.0 °F25.0 °F41 %30.10 in10.0 miSW (230°)8.1 mphClear
2:51 PM50.0 °F23.0 °F35 %30.07 in10.0 miNorthClear
3:51 PM51.1 °F23.0 °F33 %30.06 in10.0 miVariable6.9 mph17.3 mphClear
4:51 PM50.0 °F24.1 °F36 %30.05 in10.0 miWSW (240°)5.8 mphClear
5:51 PM48.9 °F25.0 °F39 %30.04 in10.0 miVariable6.9 mph19.6 mphClear
6:51 PM48.0 °F25.0 °F41 %30.04 in10.0 miSW (230°)10.4 mph21.9 mphClear
7:51 PM46.9 °F26.1 °F44 %30.02 in10.0 miSW (220°)9.2 mph20.7 mphClear
8:51 PM46.0 °F26.1 °F46 %30.00 in10.0 miSW (230°)13.8 mph28.8 mphClear
9:51 PM45.0 °F25.0 °F46 %29.98 in10.0 miWSW (240°)11.5 mph21.9 mphClear
10:51 PM44.1 °F26.1 °F49 %29.95 in10.0 miWSW (250°)11.5 mph21.9 mphClear
11:51 PM44.1 °F27.0 °F51 %29.92 in10.0 miWSW (240°)11.5 mph21.9 mphClear
Hourly data recorded from KNYC, located miles away from New York - Central Park, New York







STORIES FROM OUR PARTNERS